Flag for U.S.A. Weather past 2 weeks in Midland, Texas, U.S.A.

Now
76 °F

Sunny.


Feels Like: 78 °F
Forecast: 56 / 80 °F
Wind: No wind

Location: Midland - Midland Airpark

Current Time: Oct 23, 2014 at 2:30:25 PM

Latest Report: Oct 23, 2014 at 1:55 PM


Visibility: 10 mi

Pressure: 30.14 "Hg

Humidity: 61%

Dew point: 61 °F

Location of MidlandLocation

Historic Weather in Midland — Graph

°F

Midland temperature yesterday

Maximum temperature yesterday: 72 °F (at 5:15 PM)
Minimum temperature yesterday: 60 °F (at 11:55 PM)
Average temperature yesterday: 67 °F

Past Weeks' High & Low Weather Summary

 TemperatureHumidityPressure
High92 °F (Oct 16, 5:15 PM)100% (Oct 23, 5:55 AM)30.29 "Hg (Oct 23, 5:55 AM)
Low46 °F (Oct 14, 7:55 AM)12% (Oct 16, 4:15 PM)29.66 "Hg (Oct 12, 6:15 PM)
Average68 °F54%30.06 "Hg
* Reported Oct 8 1:10 PM — Oct 23 1:15 PM, Midland, Weather by CustomWeather, © 2014

Note: Actual official high and low records may vary slightly from our data, if they occured in-between our weather recording intervals... More about our weather records

Advertising

Midland weather history for previous 24 hours

 ConditionsComfort  
Time TempWeatherWind HumidityBarometerVisibility
1:15 PM
Oct 23
72 °FSunny.No wind68%30.17 "Hg10 mi
12:55 PM71 °FSunny.No wind70%30.18 "Hg10 mi
12:35 PM69 °FSunny.No wind74%30.19 "Hg10 mi
12:15 PM67 °FScattered clouds.No wind78%30.19 "Hg10 mi
11:55 AM65 °FLow clouds.3 mph84%30.19 "Hg10 mi
11:15 AM63 °FFog.7 mph88%30.19 "Hg5 mi
10:55 AM62 °FFog.5 mph92%30.19 "Hg5 mi
10:35 AM62 °FFog.7 mph99%30.19 "Hg5 mi
10:15 AM62 °FFog.5 mph100%30.19 "Hg5 mi
9:55 AM62 °FFog.5 mph100%30.19 "Hg4 mi
9:35 AM62 °FFog.7 mph100%30.18 "Hg5 mi
8:55 AM62 °FFog.7 mph100%30.15 "Hg5 mi
8:35 AM61 °FFog.8 mph100%30.14 "Hg5 mi
8:15 AM61 °FLow clouds.8 mph100%30.14 "Hg7 mi
7:55 AM61 °FLow clouds.9 mph100%30.14 "Hg7 mi
7:35 AM61 °FLow clouds.8 mph100%30.13 "Hg7 mi
7:15 AM61 °FFog.7 mph100%30.13 "Hg5 mi
6:55 AM60 °FFog.8 mph100%30.13 "Hg5 mi
6:15 AM59 °FFog.9 mph100%30.12 "Hg1 mi
5:55 AM59 °FFog.8 mph100%30.13 "Hg1 mi
5:15 AM58 °FFog.6 mph96%30.12 "Hg1 mi
4:55 AM56 °FClear.3 mph94%30.12 "Hg7 mi
4:35 AM56 °FClear.No wind92%30.13 "Hg10 mi
4:15 AM57 °FClear.3 mph91%30.13 "Hg10 mi
3:55 AM57 °FClear.5 mph89%30.13 "Hg10 mi
3:15 AM57 °FClear.No wind88%30.13 "Hg10 mi
2:55 AM57 °FClear.3 mph89%30.13 "Hg10 mi
2:35 AM57 °FClear.3 mph88%30.13 "Hg10 mi
2:15 AM57 °FClear.3 mph88%30.13 "Hg10 mi
1:55 AM57 °FClear.3 mph87%30.13 "Hg10 mi
1:15 AM58 °FClear.5 mph85%30.14 "Hg10 mi
12:55 AM58 °FClear.6 mph84%30.14 "Hg10 mi
12:15 AM59 °FClear.6 mph80%30.14 "Hg10 mi
11:55 PM
Oct 22
60 °FClear.7 mph80%30.14 "Hg10 mi
11:15 PM61 °FClear.8 mph77%30.15 "Hg10 mi
10:55 PM61 °FClear.9 mph77%30.14 "Hg10 mi
10:15 PM62 °FClear.9 mph76%30.14 "Hg10 mi
9:55 PM63 °FClear.8 mph75%30.14 "Hg10 mi
9:35 PM64 °FClear.9 mph76%30.14 "Hg10 mi
9:15 PM64 °FPassing clouds.15 mph75%30.13 "Hg10 mi
8:55 PM65 °FPartly cloudy.9 mph73%30.13 "Hg10 mi
8:35 PM66 °FPartly cloudy.10 mph72%30.13 "Hg10 mi
8:15 PM67 °FOvercast.12 mph69%30.12 "Hg10 mi
7:55 PM68 °FScattered clouds.12 mph66%30.11 "Hg10 mi
7:35 PM69 °FScattered clouds.12 mph64%30.10 "Hg10 mi
7:15 PM69 °FBroken clouds.10 mph61%30.10 "Hg10 mi
6:55 PM71 °FPartly sunny.8 mph60%30.10 "Hg10 mi
6:35 PM71 °FMore clouds than sun.9 mph59%30.10 "Hg10 mi
6:15 PM71 °FOvercast.9 mph64%30.08 "Hg10 mi
5:55 PM72 °FCloudy.8 mph65%30.08 "Hg10 mi
5:35 PM72 °FCloudy.3 mph68%30.08 "Hg10 mi
5:15 PM72 °FPartly sunny.9 mph68%30.07 "Hg10 mi
4:55 PM72 °FBroken clouds.6 mph72%30.07 "Hg10 mi
4:15 PM69 °FCloudy.6 mph84%30.08 "Hg10 mi
3:30 PM68 °FMore clouds than sun.6 mph87%30.09 "Hg10 mi
3:15 PM66 °FLight rain. Cloudy.3 mph87%30.09 "Hg2 mi
2:55 PM71 °FPartly sunny.10 mph69%30.10 "Hg10 mi
2:15 PM71 °FPartly sunny.12 mph68%30.11 "Hg10 mi
Weather by CustomWeather, © 2014

See weather overviewHow to use our weather pages